Location: Albuquerque Trailhead
(34.7934°N, 106.3736°W)
Time: 23:49:31
(UTC+00:00)

Cosmos 2237 Rocket - Pass Details

Date: 20 June 2021
Orbit: 835 x 850 km, 71.0° (Epoch: 01 August)

Event Time Altitude Azimuth Distance (km) Brightness Sun altitude
Exits shadow 05:25:26 61° 76° (ENE) 941 2.3 -27.0°
Drops below altitude 10° 05:30:25 10° 27° (NNE) 2,449 5.0 -27.4°
Sets 05:32:53 0° 25° (NNE) 3,387 5.9 -27.6°
